TimeEDT,TemperatureF,Dew PointF,Humidity,Sea Level PressureIn,VisibilityMPH,Wind Direction,Wind SpeedMPH,Gust SpeedMPH,PrecipitationIn,Events,Conditions,WindDirDegrees,DateUTC
12:51 AM,63.0,57.0,81,30.09,10.0,East,8.1,-,N/A,,Mostly Cloudy,100,2013-05-08 04:51:00
1:51 AM,62.1,59.0,90,30.08,3.0,ESE,5.8,-,0.04,Rain,Rain,120,2013-05-08 05:51:00
2:41 AM,62.6,59.0,88,30.06,4.0,ENE,8.1,-,0.14,Rain,Light Rain,70,2013-05-08 06:41:00
2:51 AM,61.0,59.0,93,30.06,5.0,ENE,5.8,-,0.14,Rain,Light Rain,70,2013-05-08 06:51:00
3:51 AM,61.0,59.0,93,30.05,5.0,East,8.1,-,0.09,Rain,Rain,80,2013-05-08 07:51:00
4:45 AM,60.8,60.8,100,30.04,6.0,ENE,5.8,-,0.05,Rain,Light Rain,60,2013-05-08 08:45:00
4:51 AM,60.8,60.8,100,30.03,6.0,ENE,6.9,-,N/A,Rain,Light Rain,70,2013-05-08 08:51:00
5:51 AM,61.0,59.0,93,30.05,5.0,ENE,6.9,-,0.01,Rain,Rain,70,2013-05-08 09:51:00
6:51 AM,61.0,59.0,93,30.08,6.0,ENE,6.9,-,0.22,Rain,Light Rain,70,2013-05-08 10:51:00
7:39 AM,60.8,59.0,94,30.06,4.0,ENE,8.1,-,0.19,Rain-Thunderstorm,Thunderstorms and Rain,60,2013-05-08 11:39:00
7:46 AM,60.8,59.0,94,30.07,4.0,ENE,8.1,-,0.23,Rain-Thunderstorm,Heavy Thunderstorms and Rain,60,2013-05-08 11:46:00
7:51 AM,60.8,59.0,94,30.07,4.0,ENE,6.9,-,N/A,Rain-Thunderstorm,Thunderstorms and Rain,70,2013-05-08 11:51:00
7:57 AM,60.8,60.8,100,30.07,3.0,ENE,5.8,-,0.02,Rain-Thunderstorm,Heavy Thunderstorms and Rain,60,2013-05-08 11:57:00
8:16 AM,60.8,59.0,94,30.07,3.0,NE,11.5,-,0.16,Rain-Thunderstorm,Heavy Thunderstorms and Rain,40,2013-05-08 12:16:00
8:22 AM,60.8,59.0,94,30.07,3.0,ENE,6.9,-,0.20,Rain-Thunderstorm,Thunderstorms and Rain,60,2013-05-08 12:22:00
8:38 AM,59.0,57.2,94,30.07,3.0,ENE,8.1,-,0.25,Rain,Light Rain,70,2013-05-08 12:38:00
8:44 AM,60.8,59.0,94,30.06,3.0,NE,9.2,-,0.26,Rain,Light Rain,40,2013-05-08 12:44:00
8:51 AM,60.1,59.0,96,30.06,3.0,NE,9.2,-,0.26,Rain,Light Rain,40,2013-05-08 12:51:00
9:12 AM,60.8,57.2,88,30.06,10.0,NE,11.5,-,0.00,,Overcast,50,2013-05-08 13:12:00
9:49 AM,62.6,57.2,82,30.05,10.0,NE,13.8,-,0.00,,Overcast,40,2013-05-08 13:49:00
9:51 AM,62.1,57.9,86,30.05,10.0,NE,15.0,-,0.00,,Overcast,40,2013-05-08 13:51:00
10:20 AM,64.4,57.2,77,30.05,10.0,NNE,10.4,18.4,N/A,,Overcast,20,2013-05-08 14:20:00
10:51 AM,64.0,57.0,78,30.06,10.0,NNE,10.4,-,N/A,,Mostly Cloudy,30,2013-05-08 14:51:00
11:44 AM,66.2,59.0,78,30.02,10.0,NE,13.8,-,N/A,,Overcast,50,2013-05-08 15:44:00
11:51 AM,66.9,59.0,76,30.02,10.0,ENE,13.8,-,N/A,,Overcast,60,2013-05-08 15:51:00
12:35 PM,64.4,60.8,88,29.99,7.0,NE,10.4,19.6,0.00,Rain,Light Rain,50,2013-05-08 16:35:00
12:44 PM,64.4,60.8,88,29.99,2.0,East,6.9,-,0.02,Rain,Heavy Rain,80,2013-05-08 16:44:00
12:51 PM,64.0,61.0,90,30.00,2.0,East,6.9,16.1,0.03,Rain,Rain,100,2013-05-08 16:51:00
12:59 PM,62.6,60.8,94,30.01,2.0,ESE,6.9,-,0.02,Rain,Heavy Rain,120,2013-05-08 16:59:00
1:21 PM,62.6,60.8,94,30.01,2.0,East,6.9,-,0.04,Rain,Light Rain,90,2013-05-08 17:21:00
1:51 PM,61.0,60.1,97,30.00,2.0,SE,6.9,-,0.05,,Light Drizzle,130,2013-05-08 17:51:00
2:39 PM,60.8,59.0,94,30.00,3.0,ESE,4.6,-,0.00,,Overcast,110,2013-05-08 18:39:00
2:51 PM,62.1,59.0,90,29.99,3.0,Variable,3.5,-,0.00,,Overcast,0,2013-05-08 18:51:00
3:37 PM,64.4,59.0,83,29.98,8.0,Calm,Calm,-,N/A,,Mostly Cloudy,0,2013-05-08 19:37:00
3:51 PM,64.9,59.0,81,29.98,8.0,East,5.8,-,N/A,,Mostly Cloudy,90,2013-05-08 19:51:00
4:47 PM,62.6,57.2,82,29.97,8.0,ENE,6.9,-,N/A,,Mostly Cloudy,70,2013-05-08 20:47:00
4:51 PM,63.0,59.0,87,29.97,8.0,ENE,6.9,-,N/A,,Mostly Cloudy,60,2013-05-08 20:51:00
5:26 PM,62.6,57.2,82,29.98,9.0,East,5.8,-,N/A,,Mostly Cloudy,90,2013-05-08 21:26:00
5:51 PM,62.1,57.0,84,29.98,10.0,East,12.7,-,N/A,,Mostly Cloudy,100,2013-05-08 21:51:00
6:51 PM,61.0,53.1,75,29.99,10.0,East,9.2,-,N/A,,Mostly Cloudy,80,2013-05-08 22:51:00
7:51 PM,60.1,52.0,75,29.99,10.0,Variable,3.5,-,N/A,,Mostly Cloudy,0,2013-05-08 23:51:00
8:51 PM,59.0,53.1,81,30.01,10.0,East,4.6,-,N/A,,Mostly Cloudy,80,2013-05-09 00:51:00
9:51 PM,59.0,53.1,81,30.02,10.0,East,4.6,-,N/A,,Mostly Cloudy,80,2013-05-09 01:51:00
10:51 PM,59.0,52.0,78,30.01,10.0,East,3.5,-,N/A,,Mostly Cloudy,90,2013-05-09 02:51:00
11:51 PM,57.9,52.0,81,30.01,10.0,Calm,Calm,-,N/A,,Scattered Clouds,0,2013-05-09 03:51:00